AMOS-17 (44479 NORAD) Tracking and Keplerian Element Data

This shows tracking and keplerian element data for the satellite.

Feedback or suggestion? Click here.




ElementValue
Catalog44479
NameAMOS-17
Epoch Orbit16
Epoch Day227.74909808
Epoch Year2019
RAAN282.3275
Inclination0.1737
Eccentricity0.0020082
Argument of Perigee305.3373
Mean Anonmoly19.6334
Mean Motion0.99888643
Decay Rate1.4E-07
L11 44479U 19050A 19227.74909808 .00000014 00000-0 10000-3 0 9998
L22 44479 0.1737 282.3275 0020082 305.3373 19.6334 0.99888643 161

Live tracking and technical data element details for AMOS-17 (NORAD 44479). AMOS-17 can be tracked NOW for your location showing map with azimuth and elevation plus other details from your city location.

Track the satellite on the map from your city or location and see movement details for azimuth, elevation, latitude, longitude, range, height, and movement on the map or in text.







IsCatalogInMostPopularTable: catalog: 44479, numindb: 2
Update: records affected: 1



GetName: 44479 AMOS-17

Hit Count: updated at: Wed, 21 Aug 2019 11:59:51 GMT